| time (UTC) | temp C | wind direction | speed KPH | gust KPH | rain 1hr cm | rain 24hr cm | rain mn cm | humidity % | barometer mb |
| 20260831005415 | 21 | 187 | 0.0 | 0.0 | 0.00 | 2.57 | 2.57 | 91 | 1014.8 |
| 20260831004909 | 22 | 233 | 1.6 | 1.6 | 0.00 | 2.57 | 2.57 | 91 | 1014.8 |
| 20260831004406 | 22 | 190 | 1.6 | 1.6 | 0.00 | 2.57 | 2.57 | 90 | 1014.6 |
| 20260831003901 | 22 | 228 | 0.0 | 0.0 | 0.00 | 2.57 | 2.57 | 90 | 1014.7 |
| 20260831003357 | 22 | 15 | 0.0 | 1.6 | 0.00 | 2.57 | 2.57 | 89 | 1014.6 |
| 20260831002857 | 22 | 201 | 1.6 | 4.8 | 0.00 | 2.57 | 2.57 | 90 | 1014.6 |
| 20260831002356 | 22 | 297 | 0.0 | 0.0 | 0.00 | 2.57 | 2.57 | 89 | 1014.4 |
| 20260831001851 | 22 | 354 | 0.0 | 0.0 | 0.00 | 2.57 | 2.57 | 89 | 1014.6 |
| 20260831001351 | 22 | 45 | 0.0 | 0.0 | 0.00 | 2.57 | 2.57 | 89 | 1014.6 |
| 20260831000849 | 22 | 338 | 0.0 | 0.0 | 0.00 | 2.57 | 2.57 | 88 | 1014.8 |
| 20260831000344 | 22 | 276 | 0.0 | 0.0 | 0.00 | 2.57 | 2.57 | 88 | 1014.9 |
| 20260830235842 | 22 | 67 | 1.6 | 3.2 | 0.00 | 2.57 | 2.57 | 88 | 1014.7 |
| 20260830235337 | 22 | 20 | 0.0 | 1.6 | 0.00 | 2.57 | 2.57 | 87 | 1014.7 |
| 20260830234833 | 22 | 333 | 0.0 | 0.0 | 0.00 | 2.57 | 2.57 | 88 | 1014.6 |
| 20260830234328 | 22 | 287 | 0.0 | 1.6 | 0.00 | 2.57 | 2.57 | 88 | 1014.8 |
| 20260830233824 | 22 | 198 | 4.8 | 4.8 | 0.00 | 2.57 | 2.57 | 88 | 1014.6 |
| 20260830233319 | 22 | 251 | 3.2 | 4.8 | 0.00 | 2.57 | 2.57 | 87 | 1015.0 |
| 20260830232815 | 23 | 79 | 0.0 | 0.0 | 0.00 | 2.57 | 2.57 | 87 | 1014.8 |
| 20260830232310 | 23 | 280 | 0.0 | 0.0 | 0.00 | 2.57 | 2.57 | 87 | 1014.8 |
| 20260830231807 | 23 | 205 | 1.6 | 3.2 | 0.00 | 2.57 | 2.57 | 86 | 1014.5 |
| 20260830231307 | 23 | 37 | 0.0 | 1.6 | 0.00 | 2.57 | 2.57 | 85 | 1014.7 |
| 20260830230801 | 23 | 65 | 1.6 | 3.2 | 0.00 | 2.57 | 2.57 | 85 | 1014.7 |
| 20260830230257 | 23 | 248 | 0.0 | 0.0 | 0.00 | 2.57 | 2.57 | 85 | 1014.8 |
| 20260830225756 | 23 | 206 | 0.0 | 0.0 | 0.00 | 2.57 | 2.57 | 85 | 1014.7 |
| 20260830225251 | 23 | 47 | 1.6 | 1.6 | 0.00 | 2.57 | 2.57 | 84 | 1014.8 |
| 20260830224750 | 23 | 295 | 0.0 | 0.0 | 0.00 | 2.57 | 2.57 | 84 | 1014.9 |
| 20260830224246 | 23 | 184 | 3.2 | 3.2 | 0.00 | 2.57 | 2.57 | 83 | 1014.9 |
| 20260830223743 | 24 | 228 | 1.6 | 1.6 | 0.00 | 2.57 | 2.57 | 83 | 1015.1 |
| 20260830223238 | 24 | 222 | 0.0 | 0.0 | 0.00 | 2.57 | 2.57 | 82 | 1015.0 |
| 20260830222732 | 24 | 206 | 0.0 | 1.6 | 0.00 | 2.57 | 2.57 | 82 | 1015.2 |
| 20260830222227 | 25 | 12 | 0.0 | 0.0 | 0.00 | 2.57 | 2.57 | 82 | 1015.3 |
| 20260830221723 | 25 | 201 | 1.6 | 1.6 | 0.00 | 2.57 | 2.57 | 81 | 1015.4 |
| 20260830221220 | 24 | 27 | 0.0 | 0.0 | 0.00 | 2.57 | 2.57 | 82 | 1015.4 |
| 20260830220715 | 24 | 99 | 1.6 | 1.6 | 0.00 | 2.57 | 2.57 | 83 | 1015.1 |
| 20260830220214 | 24 | 145 | 3.2 | 3.2 | 0.00 | 2.57 | 2.57 | 82 | 1015.5 |
| 20260830215713 | 24 | 212 | 1.6 | 1.6 | 0.00 | 2.57 | 2.57 | 81 | 1015.5 |
| 20260830215207 | 23 | 288 | 1.6 | 1.6 | 0.00 | 2.57 | 2.57 | 83 | 1015.7 |
| 20260830214657 | 23 | 220 | 3.2 | 3.2 | 0.00 | 2.57 | 2.57 | 83 | 1015.7 |
| 20260830214157 | 24 | 311 | 0.0 | 0.0 | 0.00 | 2.57 | 2.57 | 83 | 1015.4 |
| 20260830213656 | 24 | 283 | 3.2 | 3.2 | 0.00 | 2.57 | 2.57 | 83 | 1015.6 |
| 20260830213152 | 24 | 49 | 1.6 | 4.8 | 0.00 | 2.57 | 2.57 | 83 | 1015.4 |
| 20260830212648 | 25 | 288 | 0.0 | 1.6 | 0.00 | 2.57 | 2.57 | 82 | 1015.6 |
| 20260830212142 | 24 | 219 | 1.6 | 1.6 | 0.00 | 2.57 | 2.57 | 81 | 1015.5 |
| 20260830211637 | 23 | 277 | 0.0 | 0.0 | 0.00 | 2.57 | 2.57 | 83 | 1015.3 |
| 20260830211136 | 23 | 68 | 3.2 | 3.2 | 0.00 | 2.57 | 2.57 | 84 | 1015.7 |
| 20260830210633 | 23 | 244 | 0.0 | 1.6 | 0.00 | 2.57 | 2.57 | 85 | 1015.7 |
| 20260830210132 | 23 | 88 | 1.6 | 3.2 | 0.00 | 2.57 | 2.57 | 86 | 1016.0 |
| 20260830205629 | 23 | 292 | 1.6 | 1.6 | 0.00 | 2.57 | 2.57 | 86 | 1015.8 |
| 20260830205124 | 23 | 189 | 0.0 | 1.6 | 0.00 | 2.57 | 2.57 | 85 | 1015.6 |
| 20260830204624 | 23 | 274 | 0.0 | 1.6 | 0.00 | 2.57 | 2.57 | 85 | 1015.6 |
| 20260830204123 | 23 | 295 | 0.0 | 0.0 | 0.00 | 2.57 | 2.57 | 86 | 1015.8 |
| 20260830203619 | 23 | 285 | 1.6 | 3.2 | 0.00 | 2.57 | 2.57 | 86 | 1015.6 |
| 20260830203119 | 23 | 281 | 0.0 | 0.0 | 0.00 | 2.57 | 2.57 | 86 | 1015.6 |
| 20260830202619 | 23 | 297 | 0.0 | 1.6 | 0.00 | 2.57 | 2.57 | 87 | 1015.5 |
| 20260830202114 | 23 | 358 | 0.0 | 0.0 | 0.00 | 2.57 | 2.57 | 87 | 1015.6 |
| 20260830201614 | 23 | 245 | 3.2 | 3.2 | 0.00 | 2.57 | 2.57 | 86 | 1015.5 |
| 20260830201109 | 23 | 42 | 0.0 | 0.0 | 0.00 | 2.57 | 2.57 | 88 | 1015.5 |
| 20260830200605 | 23 | 98 | 3.2 | 3.2 | 0.00 | 2.57 | 2.57 | 87 | 1015.5 |
| 20260830200103 | 23 | 208 | 1.6 | 3.2 | 0.00 | 2.57 | 2.57 | 88 | 1015.4 |
| 20260830195559 | 23 | 323 | 0.0 | 0.0 | 0.00 | 2.57 | 2.57 | 89 | 1015.5 |
| 20260830195056 | 23 | 51 | 0.0 | 0.0 | 0.00 | 2.57 | 2.57 | 89 | 1015.7 |
| 20260830194551 | 23 | 215 | 0.0 | 1.6 | 0.00 | 2.57 | 2.57 | 89 | 1015.5 |
| 20260830194045 | 23 | 202 | 0.0 | 0.0 | 0.00 | 2.57 | 2.57 | 88 | 1015.4 |
| 20260830193544 | 23 | 183 | 0.0 | 0.0 | 0.00 | 2.57 | 2.57 | 89 | 1015.4 |
| 20260830193040 | 23 | 270 | 0.0 | 0.0 | 0.00 | 2.57 | 2.57 | 90 | 1015.7 |
| 20260830192535 | 23 | 252 | 0.0 | 0.0 | 0.00 | 2.57 | 2.57 | 90 | 1015.8 |
| 20260830192029 | 22 | 6 | 0.0 | 0.0 | 0.00 | 2.57 | 2.57 | 90 | 1015.9 |
| 20260830191525 | 22 | 75 | 3.2 | 4.8 | 0.00 | 2.57 | 2.57 | 92 | 1015.8 |
| 20260830191020 | 22 | 228 | 1.6 | 3.2 | 0.00 | 2.57 | 2.57 | 91 | 1016.0 |
| 20260830190515 | 22 | 186 | 1.6 | 3.2 | 0.00 | 2.57 | 2.57 | 91 | 1015.9 |
| 20260830190010 | 22 | 212 | 0.0 | 0.0 | 0.00 | 2.57 | 2.57 | 91 | 1016.0 |
| 20260830185504 | 22 | 299 | 0.0 | 0.0 | 0.00 | 2.57 | 2.57 | 92 | 1016.1 |
| 20260830185000 | 22 | 266 | 0.0 | 0.0 | 0.00 | 2.57 | 2.57 | 92 | 1015.9 |
| 20260830184459 | 22 | 304 | 0.0 | 0.0 | 0.00 | 2.57 | 2.57 | 92 | 1016.3 |
| 20260830183953 | 22 | 274 | 0.0 | 1.6 | 0.00 | 2.57 | 2.57 | 92 | 1016.3 |
| 20260830183448 | 22 | 286 | 0.0 | 0.0 | 0.00 | 2.57 | 2.57 | 92 | 1016.2 |
| 20260830182943 | 22 | 209 | 0.0 | 0.0 | 0.00 | 2.57 | 2.57 | 92 | 1016.2 |
| 20260830182438 | 22 | 277 | 0.0 | 0.0 | 0.00 | 2.57 | 2.57 | 92 | 1016.0 |
| 20260830181935 | 22 | 195 | 0.0 | 3.2 | 0.00 | 2.57 | 2.57 | 93 | 1016.0 |
| 20260830181431 | 22 | 201 | 3.2 | 3.2 | 0.00 | 2.57 | 2.57 | 93 | 1016.1 |
| 20260830180925 | 21 | 351 | 0.0 | 0.0 | 0.00 | 2.57 | 2.57 | 97 | 1016.1 |
| 20260830180425 | 21 | 320 | 0.0 | 0.0 | 0.00 | 2.57 | 2.57 | 99 | 1016.1 |
| 20260830175924 | 21 | 356 | 1.6 | 1.6 | 0.00 | 2.57 | 2.57 | 99 | 1016.1 |
| 20260830175423 | 20 | 68 | 0.0 | 0.0 | 0.00 | 2.57 | 2.57 | 99 | 1016.0 |
| 20260830174919 | 20 | 283 | 0.0 | 0.0 | 0.00 | 2.57 | 2.57 | 99 | 1016.3 |
| 20260830174414 | 20 | 264 | 0.0 | 0.0 | 0.00 | 2.57 | 2.57 | 99 | 1016.3 |
| 20260830173910 | 20 | 346 | 0.0 | 0.0 | 0.00 | 2.57 | 2.57 | 99 | 1016.3 |
| 20260830173405 | 20 | 262 | 1.6 | 1.6 | 0.00 | 2.57 | 2.57 | 99 | 1016.4 |
| 20260830172901 | 20 | 269 | 0.0 | 0.0 | 0.00 | 2.57 | 2.57 | 99 | 1016.3 |
| 20260830172357 | 19 | 274 | 0.0 | 1.6 | 0.00 | 2.57 | 2.57 | 99 | 1016.1 |
| 20260830171852 | 19 | 266 | 1.6 | 1.6 | 0.00 | 2.57 | 2.57 | 99 | 1016.4 |
| 20260830171348 | 19 | 307 | 0.0 | 0.0 | 0.00 | 2.57 | 2.57 | 99 | 1016.4 |
| 20260830170843 | 19 | 34 | 0.0 | 0.0 | 0.00 | 2.57 | 2.57 | 99 | 1016.6 |
| 20260830170342 | 19 | 44 | 0.0 | 0.0 | 0.00 | 2.57 | 2.57 | 99 | 1016.3 |
| 20260830165840 | 19 | 330 | 0.0 | 0.0 | 0.00 | 2.57 | 2.57 | 99 | 1016.5 |
| 20260830165337 | 18 | 296 | 0.0 | 0.0 | 0.00 | 2.57 | 2.57 | 99 | 1016.3 |
| 20260830164833 | 18 | 303 | 0.0 | 0.0 | 0.00 | 2.57 | 2.57 | 99 | 1016.5 |
| 20260830164328 | 19 | 276 | 1.6 | 1.6 | 0.00 | 2.57 | 2.57 | 99 | 1016.6 |
| 20260830163825 | 19 | 321 | 0.0 | 0.0 | 0.00 | 2.57 | 2.57 | 99 | 1016.4 |
| 20260830163320 | 18 | 245 | 6.4 | 9.7 | 0.00 | 2.57 | 2.57 | 99 | 1016.4 |
| 20260830162815 | 18 | 211 | 0.0 | 0.0 | 0.00 | 2.57 | 2.57 | 99 | 1016.6 |
| 20260830162311 | 18 | 249 | 0.0 | 0.0 | 0.00 | 2.57 | 2.57 | 99 | 1016.7 |
| 20260830161806 | 18 | 272 | 0.0 | 0.0 | 0.00 | 2.57 | 2.57 | 99 | 1016.9 |
| 20260830161305 | 18 | 172 | 4.8 | 4.8 | 0.00 | 2.57 | 2.57 | 99 | 1017.0 |
| 20260830160801 | 18 | 256 | 0.0 | 0.0 | 0.00 | 2.57 | 2.57 | 99 | 1016.9 |
| 20260830160300 | 18 | 227 | 0.0 | 0.0 | 0.00 | 2.57 | 2.57 | 99 | 1017.1 |
| 20260830155751 | 18 | 239 | 0.0 | 0.0 | 0.00 | 2.57 | 2.57 | 99 | 1017.4 |
| 20260830155248 | 18 | 301 | 3.2 | 3.2 | 0.18 | 2.57 | 2.57 | 99 | 1017.7 |
| 20260830154748 | 18 | 294 | 0.0 | 0.0 | 0.48 | 2.57 | 2.57 | 99 | 1017.6 |
| 20260830154243 | 18 | 196 | 0.0 | 0.0 | 0.30 | 2.54 | 2.54 | 99 | 1017.5 |
| 20260830153740 | 18 | 307 | 0.0 | 1.6 | 0.43 | 2.49 | 2.49 | 99 | 1017.7 |
| 20260830153235 | 18 | 84 | 1.6 | 1.6 | 0.61 | 2.49 | 2.49 | 99 | 1017.5 |
| 20260830152733 | 18 | 234 | 0.0 | 0.0 | 0.48 | 2.41 | 2.41 | 99 | 1017.9 |
| 20260830152228 | 18 | 299 | 0.0 | 0.0 | 0.48 | 2.39 | 2.39 | 99 | 1018.1 |
| 20260830151723 | 18 | 310 | 0.0 | 0.0 | 0.30 | 2.34 | 2.34 | 99 | 1017.8 |
| 20260830151222 | 18 | 91 | 1.6 | 3.2 | 0.13 | 2.31 | 2.31 | 99 | 1017.7 |
| 20260830150717 | 18 | 290 | 1.6 | 3.2 | 0.00 | 2.29 | 2.29 | 99 | 1017.6 |
| 20260830150211 | 18 | 317 | 1.6 | 3.2 | 0.18 | 2.29 | 2.29 | 99 | 1018.0 |
| 20260830145706 | 18 | 294 | 1.6 | 1.6 | 0.30 | 2.29 | 2.29 | 99 | 1017.9 |
| 20260830145201 | 18 | 27 | 0.0 | 0.0 | 0.30 | 2.26 | 2.26 | 99 | 1018.1 |
| 20260830144656 | 18 | 258 | 0.0 | 0.0 | 0.48 | 2.24 | 2.24 | 99 | 1018.1 |
| 20260830144152 | 18 | 298 | 0.0 | 0.0 | 0.43 | 2.21 | 2.21 | 99 | 1018.3 |
| 20260830143648 | 18 | 50 | 0.0 | 0.0 | 0.30 | 2.18 | 2.18 | 99 | 1018.2 |
| 20260830143146 | 18 | 47 | 0.0 | 0.0 | 0.30 | 2.13 | 2.13 | 99 | 1018.1 |
| 20260830142641 | 18 | 119 | 0.0 | 0.0 | 0.97 | 2.13 | 2.13 | 99 | 1018.6 |
| 20260830142136 | 18 | 327 | 0.0 | 0.0 | 0.97 | 2.08 | 2.08 | 99 | 1018.7 |
| 20260830141631 | 18 | 205 | 0.0 | 0.0 | 0.43 | 1.98 | 1.98 | 99 | 1018.5 |
| 20260830141126 | 18 | 282 | 0.0 | 0.0 | 0.43 | 1.93 | 1.93 | 99 | 1018.6 |
| 20260830140622 | 18 | 306 | 0.0 | 0.0 | 0.61 | 1.91 | 1.91 | 99 | 1018.2 |
| 20260830140121 | 18 | 316 | 0.0 | 0.0 | 0.48 | 1.85 | 1.85 | 99 | 1018.2 |
| 20260830135616 | 18 | 280 | 0.0 | 0.0 | 0.30 | 1.83 | 1.83 | 99 | 1018.4 |
| 20260830135111 | 18 | 104 | 0.0 | 0.0 | 0.30 | 1.78 | 1.78 | 99 | 1018.4 |
| 20260830134607 | 18 | 308 | 1.6 | 3.2 | 0.66 | 1.75 | 1.75 | 99 | 1018.5 |
| 20260830134102 | 18 | 211 | 0.0 | 0.0 | 0.79 | 1.73 | 1.73 | 99 | 1018.3 |
| 20260830133557 | 18 | 251 | 0.0 | 0.0 | 0.61 | 1.65 | 1.65 | 99 | 1018.7 |
| 20260830133052 | 18 | 294 | 0.0 | 1.6 | 0.71 | 1.60 | 1.60 | 99 | 1018.6 |
| 20260830132549 | 18 | 339 | 0.0 | 0.0 | 0.61 | 1.55 | 1.55 | 99 | 1018.1 |
| 20260830132043 | 18 | 207 | 0.0 | 0.0 | 0.43 | 1.50 | 1.50 | 99 | 1018.5 |
| 20260830131542 | 18 | 305 | 3.2 | 3.2 | 0.48 | 1.45 | 1.45 | 99 | 1018.5 |
| 20260830131037 | 18 | 282 | 0.0 | 0.0 | 0.66 | 1.42 | 1.42 | 99 | 1018.3 |
| 20260830130532 | 18 | 69 | 0.0 | 0.0 | 0.43 | 1.37 | 1.37 | 99 | 1018.1 |
| 20260830130028 | 18 | 281 | 0.0 | 0.0 | 0.48 | 1.35 | 1.35 | 99 | 1018.3 |
| 20260830125522 | 18 | 336 | 0.0 | 0.0 | 0.30 | 1.30 | 1.30 | 99 | 1018.6 |
| 20260830125021 | 18 | 293 | 0.0 | 0.0 | 0.13 | 1.27 | 1.27 | 99 | 1019.1 |
| 20260830124520 | 18 | 254 | 3.2 | 3.2 | 0.18 | 1.24 | 1.24 | 99 | 1018.7 |
| 20260830124016 | 18 | 49 | 0.0 | 0.0 | 0.30 | 1.24 | 1.24 | 99 | 1018.7 |
| 20260830123513 | 18 | 282 | 0.0 | 0.0 | 0.30 | 1.22 | 1.22 | 99 | 1018.6 |
| 20260830123008 | 18 | 304 | 0.0 | 0.0 | 0.48 | 1.19 | 1.19 | 99 | 1018.5 |
| 20260830122505 | 18 | 272 | 0.0 | 0.0 | 0.61 | 1.17 | 1.17 | 99 | 1018.6 |
| 20260830122000 | 18 | 288 | 0.0 | 1.6 | 0.48 | 1.12 | 1.12 | 99 | 1018.7 |
| 20260830121455 | 18 | 301 | 0.0 | 0.0 | 0.48 | 1.07 | 1.07 | 99 | 1018.2 |
| 20260830120949 | 18 | 187 | 0.0 | 1.6 | 0.61 | 1.04 | 1.04 | 99 | 1018.2 |
| 20260830120445 | 18 | 194 | 1.6 | 1.6 | 0.79 | 1.02 | 1.02 | 99 | 1018.2 |
| 20260830115941 | 18 | 73 | 0.0 | 0.0 | 0.71 | 0.94 | 0.94 | 99 | 1018.5 |
| 20260830115437 | 18 | 252 | 1.6 | 3.2 | 0.61 | 0.89 | 0.89 | 99 | 1018.6 |
| 20260830114933 | 18 | 284 | 0.0 | 0.0 | 0.66 | 0.81 | 0.81 | 99 | 1018.5 |
| 20260830114429 | 18 | 310 | 0.0 | 0.0 | 0.48 | 0.76 | 0.76 | 99 | 1018.4 |
| 20260830113929 | 18 | 325 | 0.0 | 1.6 | 0.30 | 0.71 | 0.71 | 99 | 1018.2 |
| 20260830113424 | 18 | 272 | 0.0 | 0.0 | 0.61 | 0.69 | 0.69 | 99 | 1018.4 |
| 20260830112919 | 18 | 59 | 0.0 | 0.0 | 0.71 | 0.66 | 0.66 | 99 | 1018.0 |
| 20260830112416 | 18 | 316 | 0.0 | 0.0 | 0.61 | 0.58 | 0.58 | 99 | 1018.0 |
| 20260830111911 | 18 | 50 | 0.0 | 0.0 | 0.79 | 0.53 | 0.53 | 99 | 1017.8 |
| 20260830111407 | 18 | 314 | 0.0 | 0.0 | 0.66 | 0.48 | 0.48 | 99 | 1017.7 |
| 20260830110902 | 18 | 345 | 1.6 | 1.6 | 0.18 | 0.41 | 0.41 | 99 | 1017.0 |
| 20260830110358 | 18 | 241 | 1.6 | 1.6 | 0.00 | 0.38 | 0.38 | 99 | 1016.9 |
| 20260830105856 | 17 | 276 | 0.0 | 0.0 | 0.00 | 0.38 | 0.38 | 99 | 1017.6 |
| 20260830105353 | 17 | 266 | 0.0 | 0.0 | 0.00 | 0.38 | 0.38 | 99 | 1017.2 |
| 20260830104849 | 17 | 283 | 0.0 | 0.0 | 0.00 | 0.38 | 0.38 | 99 | 1017.1 |
| 20260830104346 | 17 | 11 | 0.0 | 0.0 | 0.00 | 0.38 | 0.38 | 99 | 1017.1 |
| 20260830103844 | 17 | 288 | 0.0 | 0.0 | 0.00 | 0.38 | 0.38 | 99 | 1017.0 |
| 20260830103341 | 17 | 270 | 0.0 | 0.0 | 0.00 | 0.38 | 0.38 | 99 | 1017.2 |
| 20260830102838 | 17 | 310 | 0.0 | 0.0 | 0.00 | 0.38 | 0.38 | 99 | 1017.1 |
| 20260830102334 | 18 | 324 | 0.0 | 0.0 | 0.00 | 0.38 | 0.38 | 99 | 1017.0 |
| 20260830101831 | 17 | 344 | 0.0 | 0.0 | 0.00 | 0.38 | 0.38 | 99 | 1017.0 |
| 20260830101325 | 17 | 76 | 0.0 | 0.0 | 0.00 | 0.38 | 0.38 | 99 | 1017.2 |
| 20260830100825 | 17 | 10 | 0.0 | 0.0 | 0.00 | 0.38 | 0.38 | 99 | 1017.0 |
| 20260830100319 | 17 | 352 | 0.0 | 0.0 | 0.00 | 0.38 | 0.38 | 99 | 1017.4 |
| 20260830095818 | 17 | 355 | 0.0 | 0.0 | 0.00 | 0.38 | 0.38 | 99 | 1017.2 |
| 20260830095315 | 17 | 266 | 0.0 | 0.0 | 0.00 | 0.38 | 0.38 | 99 | 1017.2 |
| 20260830094810 | 18 | 359 | 0.0 | 0.0 | 0.00 | 0.38 | 0.38 | 99 | 1017.5 |
| 20260830094306 | 18 | 282 | 0.0 | 0.0 | 0.00 | 0.38 | 0.38 | 99 | 1017.4 |
| 20260830093802 | 18 | 85 | 0.0 | 1.6 | 0.00 | 0.38 | 0.38 | 99 | 1017.6 |
| 20260830093257 | 18 | 64 | 0.0 | 0.0 | 0.00 | 0.38 | 0.38 | 99 | 1017.7 |
| 20260830092756 | 18 | 303 | 0.0 | 0.0 | 0.00 | 0.38 | 0.38 | 99 | 1017.9 |
| 20260830092253 | 18 | 55 | 0.0 | 0.0 | 0.00 | 0.38 | 0.38 | 99 | 1017.8 |
| 20260830091750 | 18 | 321 | 0.0 | 0.0 | 0.00 | 0.38 | 0.38 | 99 | 1017.8 |
| 20260830091249 | 18 | 285 | 0.0 | 0.0 | 0.00 | 0.38 | 0.38 | 99 | 1017.8 |
| 20260830090748 | 18 | 296 | 0.0 | 0.0 | 0.13 | 0.38 | 0.38 | 99 | 1018.1 |
| 20260830090244 | 18 | 310 | 0.0 | 0.0 | 0.61 | 0.38 | 0.38 | 99 | 1017.9 |
| 20260830085743 | 18 | 318 | 0.0 | 0.0 | 0.48 | 0.36 | 0.36 | 99 | 1017.9 |
| 20260830085239 | 18 | 61 | 0.0 | 0.0 | 0.13 | 0.28 | 0.28 | 99 | 1018.0 |
| 20260830084734 | 18 | 313 | 0.0 | 0.0 | 0.30 | 0.28 | 0.28 | 99 | 1018.3 |
| 20260830084229 | 18 | 299 | 0.0 | 0.0 | 0.18 | 0.25 | 0.25 | 99 | 1018.3 |
| 20260830083724 | 18 | 302 | 0.0 | 0.0 | 0.00 | 0.23 | 0.23 | 99 | 1018.0 |
| 20260830083220 | 18 | 303 | 0.0 | 0.0 | 0.00 | 0.23 | 0.23 | 99 | 1017.8 |
| 20260830082719 | 18 | 325 | 0.0 | 0.0 | 0.00 | 0.23 | 0.23 | 99 | 1017.2 |
| 20260830082215 | 18 | 270 | 0.0 | 0.0 | 0.00 | 0.23 | 0.23 | 99 | 1017.6 |
| 20260830081711 | 18 | 327 | 0.0 | 0.0 | 0.13 | 0.23 | 0.23 | 99 | 1017.4 |
| 20260830081210 | 18 | 71 | 0.0 | 1.6 | 0.13 | 0.23 | 0.23 | 99 | 1017.5 |
| 20260830080704 | 18 | 296 | 0.0 | 0.0 | 0.00 | 0.20 | 0.20 | 99 | 1017.9 |
| 20260830080201 | 18 | 89 | 0.0 | 0.0 | 0.18 | 0.20 | 0.20 | 99 | 1017.8 |
| 20260830075659 | 18 | 293 | 0.0 | 0.0 | 0.30 | 0.20 | 0.20 | 99 | 1018.5 |
| 20260830075155 | 18 | 354 | 0.0 | 0.0 | 0.13 | 0.18 | 0.18 | 99 | 1018.6 |
| 20260830074651 | 18 | 297 | 0.0 | 0.0 | 0.13 | 0.18 | 0.18 | 99 | 1018.8 |
| 20260830074146 | 18 | 284 | 0.0 | 0.0 | 0.00 | 0.15 | 0.15 | 99 | 1018.7 |
| 20260830073642 | 18 | 279 | 0.0 | 0.0 | 0.18 | 0.15 | 0.15 | 99 | 1019.0 |
| 20260830073138 | 18 | 279 | 0.0 | 0.0 | 0.18 | 0.15 | 0.15 | 99 | 1018.7 |
| 20260830072632 | 18 | 273 | 0.0 | 0.0 | 0.00 | 0.13 | 0.13 | 99 | 1018.7 |
| 20260830072132 | 18 | 282 | 0.0 | 0.0 | 0.00 | 0.13 | 0.13 | 99 | 1018.5 |
| 20260830071628 | 18 | 293 | 0.0 | 0.0 | 0.00 | 0.13 | 0.13 | 99 | 1018.5 |
| 20260830071126 | 18 | 295 | 0.0 | 0.0 | 0.00 | 0.13 | 0.13 | 99 | 1018.5 |
| 20260830070621 | 18 | 314 | 0.0 | 0.0 | 0.00 | 0.13 | 0.13 | 99 | 1018.4 |
| 20260830070117 | 18 | 280 | 0.0 | 0.0 | 0.00 | 0.13 | 0.13 | 99 | 1018.6 |
| 20260830065615 | 18 | 240 | 0.0 | 0.0 | 0.00 | 0.13 | 0.13 | 99 | 1018.5 |
| 20260830065114 | 18 | 324 | 0.0 | 0.0 | 0.00 | 0.13 | 0.13 | 99 | 1018.6 |
| 20260830064614 | 18 | 284 | 0.0 | 0.0 | 0.00 | 0.13 | 0.13 | 99 | 1018.6 |
| 20260830064109 | 18 | 290 | 0.0 | 0.0 | 0.00 | 0.13 | 0.13 | 99 | 1018.6 |
| 20260830063609 | 18 | 305 | 0.0 | 0.0 | 0.00 | 0.13 | 0.13 | 99 | 1018.7 |
| 20260830063109 | 18 | 332 | 0.0 | 0.0 | 0.00 | 0.13 | 0.13 | 99 | 1018.6 |
| 20260830062603 | 18 | 278 | 0.0 | 0.0 | 0.00 | 0.13 | 0.13 | 99 | 1018.8 |
| 20260830062057 | 17 | 278 | 0.0 | 0.0 | 0.00 | 0.13 | 0.13 | 99 | 1018.7 |
| 20260830061552 | 17 | 277 | 0.0 | 0.0 | 0.00 | 0.13 | 0.13 | 99 | 1018.7 |
| 20260830061049 | 18 | 278 | 0.0 | 0.0 | 0.00 | 0.13 | 0.13 | 99 | 1018.9 |
| 20260830060544 | 18 | 274 | 0.0 | 0.0 | 0.00 | 0.13 | 0.13 | 99 | 1018.5 |
| 20260830060041 | 18 | 291 | 0.0 | 0.0 | 0.00 | 0.13 | 0.13 | 99 | 1018.6 |
| 20260830055536 | 18 | 338 | 0.0 | 0.0 | 0.00 | 0.13 | 0.13 | 99 | 1018.6 |
| 20260830055032 | 18 | 333 | 0.0 | 0.0 | 0.00 | 0.13 | 0.13 | 99 | 1018.6 |
| 20260830054527 | 18 | 320 | 0.0 | 0.0 | 0.00 | 0.13 | 0.13 | 99 | 1018.6 |
| 20260830054022 | 18 | 295 | 0.0 | 0.0 | 0.00 | 0.13 | 0.13 | 99 | 1018.9 |
| 20260830053518 | 18 | 257 | 0.0 | 0.0 | 0.00 | 0.13 | 0.13 | 99 | 1018.8 |
| 20260830053017 | 18 | 270 | 0.0 | 0.0 | 0.00 | 0.13 | 0.13 | 99 | 1018.7 |
| 20260830052513 | 18 | 16 | 0.0 | 0.0 | 0.00 | 0.13 | 0.13 | 99 | 1018.7 |
| 20260830052012 | 18 | 59 | 0.0 | 0.0 | 0.00 | 0.13 | 0.13 | 99 | 1019.1 |
| 20260830051508 | 18 | 274 | 0.0 | 0.0 | 0.00 | 0.13 | 0.13 | 99 | 1018.9 |
| 20260830051003 | 18 | 87 | 0.0 | 0.0 | 0.00 | 0.13 | 0.13 | 98 | 1019.0 |
| 20260830050457 | 18 | 328 | 0.0 | 0.0 | 0.18 | 0.13 | 0.13 | 98 | 1019.1 |
| 20260830045955 | 18 | 69 | 0.0 | 0.0 | 0.18 | 0.13 | 0.13 | 97 | 1019.1 |
| 20260830045451 | 18 | 320 | 3.2 | 4.8 | 0.00 | 0.10 | 0.10 | 97 | 1019.2 |
| 20260830044950 | 18 | 287 | 0.0 | 1.6 | 0.00 | 0.10 | 0.10 | 99 | 1019.1 |
| 20260830044446 | 19 | 294 | 3.2 | 3.2 | 0.13 | 0.10 | 0.10 | 99 | 1019.0 |
| 20260830043940 | 20 | 291 | 0.0 | 0.0 | 0.13 | 0.10 | 0.10 | 99 | 1019.0 |
| 20260830043435 | 20 | 243 | 0.0 | 0.0 | 0.18 | 0.08 | 0.08 | 99 | 1019.0 |
| 20260830042933 | 20 | 312 | 0.0 | 0.0 | 0.30 | 0.08 | 0.08 | 99 | 1019.0 |
| 20260830042427 | 20 | 301 | 0.0 | 0.0 | 0.13 | 0.05 | 0.05 | 98 | 1019.1 |
| 20260830041926 | 20 | 315 | 0.0 | 0.0 | 0.18 | 0.03 | 0.03 | 98 | 1019.0 |
| 20260830041425 | 20 | 277 | 0.0 | 0.0 | 0.18 | 0.03 | 0.03 | 98 | 1019.0 |
| 20260830040921 | 20 | 332 | 0.0 | 0.0 | 0.00 | 0.00 | 0.00 | 97 | 1018.8 |
| 20260830040417 | 20 | 319 | 0.0 | 0.0 | 0.00 | 0.00 | 0.00 | 97 | 1018.8 |
| 20260830035916 | 20 | 60 | 0.0 | 0.0 | 0.00 | 0.00 | 0.00 | 96 | 1018.5 |
| 20260830035415 | 20 | 310 | 0.0 | 0.0 | 0.00 | 0.00 | 0.00 | 95 | 1018.6 |
| 20260830034910 | 20 | 77 | 0.0 | 0.0 | 0.00 | 0.00 | 0.00 | 95 | 1018.7 |
| 20260830034406 | 20 | 317 | 0.0 | 0.0 | 0.00 | 0.00 | 0.00 | 94 | 1019.0 |
| 20260830033901 | 20 | 269 | 0.0 | 0.0 | 0.00 | 0.00 | 0.00 | 93 | 1018.9 |
| 20260830033355 | 20 | 280 | 0.0 | 0.0 | 0.00 | 0.00 | 0.00 | 92 | 1018.7 |
| 20260830032850 | 20 | 282 | 0.0 | 0.0 | 0.00 | 0.00 | 0.00 | 92 | 1018.6 |
| 20260830032344 | 20 | 286 | 0.0 | 0.0 | 0.00 | 0.00 | 0.00 | 92 | 1018.6 |
| 20260830031840 | 20 | 286 | 0.0 | 0.0 | 0.00 | 0.00 | 0.00 | 92 | 1018.7 |
| 20260830031335 | 20 | 280 | 0.0 | 0.0 | 0.00 | 0.00 | 0.00 | 92 | 1018.4 |
| 20260830030830 | 20 | 280 | 0.0 | 0.0 | 0.00 | 0.00 | 0.00 | 91 | 1018.4 |
| 20260830030326 | 21 | 280 | 0.0 | 0.0 | 0.00 | 0.00 | 0.00 | 91 | 1018.8 |
| 20260830025825 | 21 | 280 | 0.0 | 0.0 | 0.00 | 0.00 | 0.00 | 91 | 1018.4 |
| 20260830025324 | 21 | 280 | 0.0 | 0.0 | 0.00 | 0.00 | 0.00 | 91 | 1018.4 |
| 20260830024819 | 21 | 281 | 0.0 | 0.0 | 0.00 | 0.00 | 0.00 | 90 | 1018.4 |
| 20260830024314 | 21 | 281 | 0.0 | 0.0 | 0.00 | 0.00 | 0.00 | 88 | 1018.5 |
| 20260830023812 | 21 | 281 | 0.0 | 0.0 | 0.00 | 0.00 | 0.00 | 88 | 1018.3 |
| 20260830023311 | 21 | 281 | 0.0 | 0.0 | 0.00 | 0.00 | 0.00 | 88 | 1018.4 |
| 20260830022810 | 21 | 281 | 0.0 | 0.0 | 0.00 | 0.00 | 0.00 | 87 | 1018.3 |
| 20260830022300 | 21 | 284 | 0.0 | 0.0 | 0.00 | 0.00 | 0.00 | 87 | 1018.3 |
| 20260830021759 | 21 | 312 | 0.0 | 0.0 | 0.00 | 0.00 | 0.00 | 85 | 1018.4 |
| 20260830021255 | 21 | 312 | 0.0 | 0.0 | 0.00 | 0.00 | 0.00 | 84 | 1018.5 |
| 20260830020754 | 21 | 313 | 0.0 | 0.0 | 0.00 | 0.00 | 0.00 | 84 | 1018.3 |
| 20260830020249 | 22 | 287 | 0.0 | 0.0 | 0.00 | 0.00 | 0.00 | 84 | 1018.1 |
| 20260830015749 | 22 | 291 | 0.0 | 0.0 | 0.00 | 0.00 | 0.00 | 83 | 1018.4 |
| 20260830015244 | 21 | 285 | 0.0 | 0.0 | 0.00 | 0.00 | 0.00 | 83 | 1018.4 |
| 20260830014739 | 21 | 295 | 0.0 | 0.0 | 0.00 | 0.00 | 0.00 | 85 | 1018.6 |
| 20260830014236 | 21 | 288 | 0.0 | 0.0 | 0.00 | 0.00 | 0.00 | 85 | 1018.2 |
| 20260830013731 | 21 | 279 | 0.0 | 0.0 | 0.00 | 0.00 | 0.00 | 85 | 1018.3 |
| 20260830013226 | 21 | 307 | 0.0 | 0.0 | 0.00 | 0.00 | 0.00 | 85 | 1018.1 |
| 20260830012721 | 21 | 289 | 0.0 | 0.0 | 0.00 | 0.00 | 0.00 | 85 | 1018.1 |
| 20260830012217 | 21 | 289 | 0.0 | 0.0 | 0.00 | 0.00 | 0.00 | 85 | 1017.9 |
| 20260830011713 | 21 | 289 | 0.0 | 0.0 | 0.00 | 0.00 | 0.00 | 85 | 1018.1 |
| 20260830011207 | 21 | 287 | 0.0 | 0.0 | 0.00 | 0.00 | 0.00 | 85 | 1018.1 |
| 20260830010702 | 21 | 287 | 0.0 | 0.0 | 0.00 | 0.00 | 0.00 | 84 | 1017.9 |
| 20260830010157 | 22 | 291 | 0.0 | 0.0 | 0.00 | 0.00 | 0.00 | 84 | 1017.7 |